Weather History for Bradshaw AFB, HI

Change the Weather History Date:

Saturday, October 5, 2013

  Actual Average Record
Temperature  
Mean Temperature 58 °F -  
Max Temperature 69 °F 69 °F 77 °F (2006)
Min Temperature 46 °F 49 °F 44 °F (1998)
Degree Days  
Heating Degree Days 8    
Growing Degree Days 8 (Base 50)    
Moisture  
Dew Point 51 °F    
Average Humidity 75    
Maximum Humidity 90    
Minimum Humidity 53    
Precipitation  
Precipitation 0.00 in - - ()
Sea Level Pressure  
Sea Level Pressure 30.30 in    
Wind  
Wind Speed 6 mph (South)    
Max Wind Speed 16 mph    
Max Gust Speed 25 mph    
Visibility 12 miles    
Events      
Averages and records for this station are not official NWS values.
T = Trace of Precipitation, MM = Missing Value Source: NWS Daily Summary

Daily Weather History Graph

Daily Weather History Graph

Search for Another Location

Airport:

Trip Planner

Search our weather history database for the weather conditions in past years. The results will help you decide how hot, cold, wet, or windy it might be!

Date:

Astronomy

Oct. 05, 2013 Rise Set
Actual Time 6:14 AM HST 6:06 PM HST
Civil Twilight 5:52 AM HST 6:28 PM HST
Nautical Twilight 5:26 AM HST 6:54 PM HST
Astronomical Twilight 5:01 AM HST 7:19 PM HST
Moon 6:54 AM HST (10/5) 6:46 PM HST (10/5)
Length of Visible Light 12h 36m
Length of Day
11h 52m
New Moon, 1% of the Moon is Illuminated
Oct 5
New Moon
Oct 11
First Quarter
Oct 18
Full
Oct 26
Last Quarter
Nov 3
New

Hourly Weather History & Observations

Time (HST) Temp. Dew Point Humidity Pressure Visibility Wind Dir Wind Speed Gust Speed Precip Events Conditions
12:56 AM 51.8 °F 47.1 °F 84% 30.30 in 12.0 mi ESE 6.9 mph - N/A   Clear
1:56 AM 48.7 °F 41.2 °F 75% 30.29 in 12.0 mi East 3.5 mph - N/A   Clear
2:56 AM 46.9 °F 38.7 °F 73% 30.28 in 12.0 mi ESE 5.8 mph - N/A   Clear
3:56 AM 46.6 °F 39.6 °F 77% 30.27 in 12.0 mi NNW 2.3 mph - N/A   Clear
4:56 AM 47.1 °F 37.8 °F 70% 30.29 in 12.0 mi South 3.5 mph - N/A   Clear
5:56 AM 48.0 °F 43.2 °F 83% 30.30 in 12.0 mi ESE 4.6 mph - N/A   Clear
6:56 AM 51.1 °F 42.8 °F 73% 30.29 in 12.0 mi ESE 4.6 mph - N/A   Partly Cloudy
7:56 AM 58.8 °F 47.1 °F 65% 30.32 in 12.0 mi South 3.5 mph - N/A   Clear
8:56 AM 61.9 °F 50.9 °F 67% 30.32 in 12.0 mi South 12.7 mph 17.3 mph N/A   Clear
9:56 AM 63.7 °F 52.5 °F 67% 30.32 in 12.0 mi SSE 10.4 mph 18.4 mph N/A   Clear
10:46 AM 68.0 °F 51.8 °F 56% 30.32 in 12.0 mi West 5.8 mph 19.6 mph N/A   Mostly Cloudy
10:56 AM 66.9 °F 52.0 °F 59% 30.32 in 12.0 mi SW 5.8 mph - N/A   Mostly Cloudy
11:56 AM 64.2 °F 53.6 °F 68% 30.31 in 12.0 mi WSW 5.8 mph - N/A   Overcast
12:46 PM 69.8 °F 53.6 °F 56% 30.28 in 12.0 mi SE 10.4 mph 19.6 mph N/A   Mostly Cloudy
12:51 PM 69.8 °F 51.8 °F 53% 30.28 in 12.0 mi South 12.7 mph 19.6 mph N/A   Mostly Cloudy
12:56 PM 69.4 °F 52.2 °F 54% 30.28 in 12.0 mi SE 9.2 mph 19.6 mph N/A   Mostly Cloudy
1:01 PM 69.8 °F 55.4 °F 60% 30.28 in 12.0 mi NNW 8.1 mph 19.6 mph N/A   Mostly Cloudy
1:36 PM 66.2 °F 55.4 °F 68% 30.26 in 12.0 mi WSW 8.1 mph 13.8 mph N/A   Mostly Cloudy
1:46 PM 66.2 °F 55.4 °F 68% 30.26 in 12.0 mi WSW 5.8 mph - N/A   Mostly Cloudy
1:56 PM 67.5 °F 54.9 °F 64% 30.26 in 12.0 mi SSW 6.9 mph 15.0 mph N/A   Mostly Cloudy
2:56 PM 67.6 °F 53.4 °F 60% 30.24 in 12.0 mi SSE 12.7 mph 24.2 mph N/A   Partly Cloudy
3:56 PM 66.2 °F 52.5 °F 61% 30.23 in 12.0 mi SE 15.0 mph 25.3 mph N/A   Clear
4:56 PM 63.0 °F 53.2 °F 71% 30.24 in 12.0 mi SSE 16.1 mph 23.0 mph N/A   Clear
5:56 PM 59.0 °F 52.9 °F 80% 30.27 in 12.0 mi SSE 10.4 mph 19.6 mph N/A   Partly Cloudy
6:21 PM 59.0 °F 55.4 °F 88% 30.28 in 12.0 mi West 5.8 mph - N/A   Mostly Cloudy
6:56 PM 57.9 °F 54.9 °F 90% 30.28 in 12.0 mi WNW 3.5 mph - N/A   Overcast
7:31 PM 57.2 °F 53.6 °F 88% 30.30 in 12.0 mi West 2.3 mph - N/A   Scattered Clouds
7:56 PM 57.6 °F 53.8 °F 87% 30.31 in 12.0 mi West 1.2 mph - N/A   Scattered Clouds
8:01 PM 57.2 °F 53.6 °F 88% 30.31 in 12.0 mi WNW 1.2 mph - N/A   Mostly Cloudy
8:31 PM 57.2 °F 53.6 °F 88% 30.31 in 12.0 mi WSW 2.3 mph - N/A   Scattered Clouds
8:56 PM 56.3 °F 51.6 °F 84% 30.32 in 12.0 mi South 3.5 mph - N/A   Clear
9:56 PM 54.7 °F 51.8 °F 90% 30.34 in 12.0 mi South 2.3 mph - N/A   Scattered Clouds
10:01 PM 55.4 °F 51.8 °F 88% 30.34 in 12.0 mi SSW 2.3 mph - N/A   Mostly Cloudy
10:06 PM 55.4 °F 51.8 °F 88% 30.34 in 12.0 mi SSW 1.2 mph - N/A   Mostly Cloudy
10:16 PM 55.4 °F 51.8 °F 88% 30.33 in 12.0 mi SSW 1.2 mph - N/A   Mostly Cloudy
10:26 PM 55.4 °F 51.8 °F 88% 30.33 in 12.0 mi SSE 4.6 mph - N/A   Mostly Cloudy
10:56 PM 55.4 °F 51.4 °F 87% 30.33 in 12.0 mi NW 2.3 mph - N/A   Mostly Cloudy
11:01 PM 55.4 °F 51.8 °F 88% 30.33 in 12.0 mi North 2.3 mph - N/A   Scattered Clouds
11:26 PM 55.4 °F 51.8 °F 88% 30.33 in 12.0 mi ESE 3.5 mph - N/A   Mostly Cloudy
11:56 PM 54.5 °F 51.6 °F 90% 30.32 in 12.0 mi SSE 3.5 mph - N/A   Overcast